This is the latest recevied weather packets stored in our database for station/object XE2B-20. If no packets are shown the sender has not sent any weather packets the latest 10 day(s).
| Time | Temp. | Humidity | Pressure | Rain* | Wind** | Luminosity | Snow |
|---|---|---|---|---|---|---|---|
| 1788164277 | 13.33° C | 60% | 809.6 hPa | - | - | - | - |
| 1788162777 | 13.89° C | 58% | 809.8 hPa | - | - | - | - |
| 1788161294 | 13.33° C | 57% | 809.9 hPa | - | - | - | - |
| 1788159779 | 13.33° C | 56% | 809.8 hPa | - | - | - | - |
| 1788158280 | 13.33° C | 54% | 809.4 hPa | - | - | - | - |
| 1788156781 | 13.33° C | 53% | 809.3 hPa | - | - | - | - |
| 1788155283 | 13.33° C | 53% | 809.3 hPa | - | - | - | - |
| 1788153784 | 13.33° C | 52% | 809.5 hPa | - | - | - | - |
| 1788152285 | 13.33° C | 51% | 809.8 hPa | - | - | - | - |
| 1788150786 | 12.78° C | 52% | 809.9 hPa | - | - | - | - |
| 1788149286 | 12.78° C | 52% | 809.4 hPa | - | - | - | - |
| 1788147789 | 13.89° C | 51% | 809.7 hPa | - | - | - | - |
| 1788146298 | 14.44° C | 50% | 808.8 hPa | - | - | - | - |
| 1788144791 | 15° C | 49% | 808.1 hPa | - | - | - | - |
| 1788143295 | 18.33° C | 45% | 807.4 hPa | - | - | - | - |
| 1788141798 | 22.22° C | 39% | 806.8 hPa | - | - | - | - |
| 1788140300 | 22.78° C | 38% | 806.1 hPa | - | - | - | - |
| 1788138801 | 23.33° C | 38% | 806.1 hPa | - | - | - | - |
| 1788137302 | 24.44° C | 38% | 805.6 hPa | - | - | - | - |
| 1788135805 | 25.56° C | 37% | 805.5 hPa | - | - | - | - |
| 1788134306 | 26.67° C | 36% | 805.5 hPa | - | - | - | - |
| 1788132807 | 28.33° C | 35% | 805.5 hPa | - | - | - | - |
| 1788131309 | 30° C | 34% | 805.6 hPa | - | - | - | - |
| 1788129820 | 30.56° C | 34% | 805.8 hPa | - | - | - | - |
| 1788128313 | 32.22° C | 32% | 805.7 hPa | - | - | - | - |
* Rain since midnight (hover to see other rain measurements)
** Current wind speed in m/s (hover to see current wind gust speed)